Home   Weather   Township of Fairfield   Past weeks
Flag for USA

Past Weather in Township of Fairfield, Indiana, USA — Yesterday and Last 2 Weeks

Now
83 °F

Sunny.


Feels Like: 83 °F
Forecast: 89 / 64 °F
Wind: 7 mph from South

Location: Purdue University Airport

Current Time: Jul 14, 2020 at 8:14:24 pm

Latest Report: Jul 14, 2020 at 6:54 pm


Visibility: 10 mi

Pressure: 30.00 "Hg

Humidity: 48%

Dew Point: 61 °F

Location of Township of FairfieldLocation

Past Weather in Township of Fairfield — Graph

°F

Township of Fairfield Temperature Yesterday

Maximum temperature yesterday: 83 °F (at 2:54 pm)
Minimum temperature yesterday: 60 °F (at 4:54 am)
Average temperature yesterday: 73 °F

High & Low Weather Summary for the Past Weeks

 TemperatureHumidityPressure
High94 °F (Jul 4, 4:54 pm)100% (Jul 1, 5:18 am)30.05 "Hg (Jul 1, 5:18 am)
Low60 °F (Jul 13, 4:54 am)38% (Jul 2, 2:54 pm)29.71 "Hg (Jul 12, 2:32 am)
Average78 °F72%29.92 "Hg
* Reported Jun 29 6:02 pm — Jul 14 6:54 pm, Township of Fairfield. Weather by CustomWeather, © 2020

Note: Actual official high and low records may vary slightly from our data, if they occured in-between our weather recording intervals... More about our weather records

Township of Fairfield Weather History for the Previous 24 Hours

Scroll right to see more
 ConditionsComfort  
Time TempWeatherWind HumidityBarometerVisibility
6:54 pm
Tue, Jul 14
83 °FSunny.7 mph48%30.00 "Hg10 mi
5:54 pm85 °FSunny.7 mph45%30.01 "Hg10 mi
4:54 pm84 °FPassing clouds.6 mph48%30.02 "Hg10 mi
3:54 pm85 °FSunny.9 mph46%30.03 "Hg10 mi
2:54 pm85 °FPartly sunny.9 mph45%30.05 "Hg10 mi
1:54 pm84 °FSunny.6 mph45%30.04 "Hg10 mi
12:54 pm82 °FSunny.6 mph46%30.05 "Hg10 mi
11:54 am81 °FSunny.6 mph49%30.05 "Hg10 mi
10:54 am81 °FSunny.5 mph51%30.05 "Hg10 mi
9:54 am76 °FSunny.5 mph62%30.02 "Hg10 mi
8:54 am71 °FSunny.3 mph73%30.04 "Hg10 mi
7:54 am67 °FSunny.No wind90%30.03 "Hg10 mi
6:54 am61 °FSunny.No wind97%30.04 "Hg10 mi
5:54 am61 °FClear.No wind93%30.03 "Hg10 mi
4:54 am61 °FClear.No wind97%30.01 "Hg10 mi
3:54 am61 °FClear.No wind97%29.99 "Hg9 mi
2:54 am63 °FClear.No wind90%29.97 "Hg10 mi
1:54 am64 °FClear.No wind90%29.98 "Hg10 mi
12:54 am65 °FClear.No wind91%29.98 "Hg10 mi
11:54 pm
Mon, Jul 13
68 °FClear.No wind82%29.99 "Hg10 mi
10:54 pm69 °FClear.No wind79%29.98 "Hg10 mi
9:54 pm74 °FClear.3 mph62%29.98 "Hg10 mi
8:54 pm78 °FSunny.5 mph52%29.97 "Hg10 mi
Weather by CustomWeather, © 2020

See weather overview